This demonstration page uses our WeatherBlox Daily Observations layout. Learn more.

Left ArrowRight Arrow

Hourly Observations for November 6, 2022

Temp ( °F °C ) Dew Point ( °F °C ) Humidity (%) Winds ( mph kmh ) Pressure ( in mb ) Visibility ( mi km ) Precip ( " mm )
12:56 am 00:56 Clear 51 10.6 29 -1.7 42 42 SW 10 17 29.57 1002 10 16 0.00 0.00
1:56 am 01:56 Clear 52 11.1 34 1.1 50 50 N 16 26 29.61 1003 10 16 0.00 0.00
1:03 am 01:03 Clear 52 11 34 1 50 50 N 16 26 29.63 1003 10 16 0.00 0.00
1:56 am 01:56 Clear 48 8.9 34 1.1 58 58 N 9 15 29.65 1004 10 16 0.00 0.00
2:56 am 02:56 Clear 45 7.2 33 0.6 63 63 NW 8 13 29.69 1005 10 16 0.00 0.00
3:56 am 03:56 Clear 45 7.2 32 0 60 60 NW 9 15 29.72 1007 10 16 0.00 0.00
4:56 am 04:56 Mostly Clear 44 6.7 33 0.6 65 65 NW 12 19 29.79 1009 10 16 0.00 0.00
5:56 am 05:56 Clear 44 6.7 30 -1.1 57 57 NW 8 13 29.85 1011 10 16 0.00 0.00
6:56 am 06:56 Clear 43 6.1 26 -3.3 51 51 NNW 8 13 29.87 1012 10 16 0.00 0.00
7:56 am 07:56 Sunny 43 6.1 26 -3.3 51 51 N 10 17 29.91 1013 10 16 0.00 0.00
8:56 am 08:56 Mostly Sunny 46 7.8 25 -3.9 43 43 NNW 8 13 29.97 1015 10 16 0.00 0.00
9:56 am 09:56 Sunny 48 8.9 25 -3.9 40 40 N 7 11 29.99 1016 10 16 0.00 0.00
10:56 am 10:56 Sunny 52 11.1 19 -7.2 27 27 N 9 15 30.01 1016 10 16 0.00 0.00
11:56 am 11:56 Sunny 54 12.2 16 -8.9 22 22 N 9 15 30.03 1017 10 16 0.00 0.00
12:56 pm 12:56 Sunny 56 13.3 8 -13.3 14 14 N 15 24 30.04 1017 10 16 0.00 0.00
1:56 pm 13:56 Sunny 55 12.8 10 -12.2 16 16 N 10 17 30.06 1018 10 16 0.00 0.00
2:56 pm 14:56 Sunny 54 12.2 14 -10 20 20 NNW 9 15 30.09 1019 10 16 0.00 0.00
3:56 pm 15:56 Mostly Sunny 54 12.2 13 -10.6 19 19 N 7 11 30.13 1020 10 16 0.00 0.00
4:56 pm 16:56 Sunny 54 12.2 13 -10.6 19 19 N 8 13 30.15 1021 10 16 0.00 0.00
5:56 pm 17:56 Mostly Clear 44 6.7 16 -8.9 32 32 NE 8 13 30.18 1022 10 16 0.00 0.00
6:56 pm 18:56 Clear 37 2.8 16 -8.9 42 42 NE 7 11 30.23 1024 10 16 0.00 0.00
7:56 pm 19:56 Clear 35 1.7 16 -8.9 45 45 NE 7 11 30.26 1025 10 16 0.00 0.00
8:56 pm 20:56 Clear 36 2.2 16 -8.9 44 44 ENE 7 11 30.29 1026 10 16 0.00 0.00
9:56 pm 21:56 Mostly Clear 37 2.8 20 -6.7 50 50 E 7 11 30.32 1027 10 16 0.00 0.00
10:56 pm 22:56 Clear 37 2.8 20 -6.7 50 50 NNE 5 7 30.35 1028 10 16 0.00 0.00
11:56 pm 23:56 Mostly Cloudy 38 3.3 21 -6.1 50 50 E 5 7 30.36 1028 10 16 0.00 0.00

Powered by AerisWeather